TimeEST,TemperatureF,Dew PointF,Humidity,Sea Level PressureIn,VisibilityMPH,Wind Direction,Wind SpeedMPH,Gust SpeedMPH,PrecipitationIn,Events,Conditions,WindDirDegrees,DateUTC
12:53 AM,60.8,51.8,72,29.80,10.0,South,10.4,-,N/A,,Overcast,190,2012-12-16 05:53:00
12:56 AM,60.1,52.0,75,29.81,10.0,South,11.5,-,N/A,,Overcast,190,2012-12-16 05:56:00
1:56 AM,60.1,53.1,78,29.78,10.0,SSW,9.2,-,N/A,,Overcast,200,2012-12-16 06:56:00
2:11 AM,59.0,53.6,82,29.78,10.0,South,8.1,-,N/A,,Mostly Cloudy,190,2012-12-16 07:11:00
2:56 AM,59.0,53.1,81,29.78,10.0,South,9.2,-,N/A,,Mostly Cloudy,190,2012-12-16 07:56:00
3:56 AM,59.0,54.0,83,29.77,10.0,SSW,12.7,20.7,N/A,,Mostly Cloudy,200,2012-12-16 08:56:00
4:56 AM,59.0,54.0,83,29.76,10.0,South,10.4,-,N/A,,Overcast,190,2012-12-16 09:56:00
5:16 AM,59.0,53.6,82,29.76,10.0,South,9.2,-,N/A,,Mostly Cloudy,190,2012-12-16 10:16:00
5:56 AM,60.1,55.0,83,29.75,10.0,South,9.2,-,N/A,,Overcast,190,2012-12-16 10:56:00
6:41 AM,60.8,55.4,82,29.75,10.0,South,9.2,-,N/A,,Mostly Cloudy,190,2012-12-16 11:41:00
6:56 AM,60.1,55.0,83,29.75,10.0,South,10.4,-,N/A,,Mostly Cloudy,190,2012-12-16 11:56:00
7:02 AM,60.8,55.4,82,29.76,10.0,SSW,8.1,-,N/A,,Mostly Cloudy,200,2012-12-16 12:02:00
7:23 AM,60.8,55.4,82,29.76,10.0,South,8.1,-,N/A,,Overcast,190,2012-12-16 12:23:00
7:41 AM,60.8,55.4,82,29.76,10.0,SSW,6.9,-,N/A,,Overcast,200,2012-12-16 12:41:00
7:56 AM,60.1,55.0,83,29.76,10.0,SSW,4.6,-,N/A,,Overcast,200,2012-12-16 12:56:00
8:12 AM,60.8,55.4,82,29.77,10.0,SSW,8.1,-,N/A,,Overcast,200,2012-12-16 13:12:00
8:56 AM,60.1,55.0,83,29.76,10.0,South,9.2,-,N/A,,Overcast,190,2012-12-16 13:56:00
9:21 AM,60.8,55.4,82,29.76,10.0,SSW,11.5,17.3,N/A,,Mostly Cloudy,200,2012-12-16 14:21:00
9:47 AM,60.8,55.4,82,29.77,10.0,SSW,8.1,-,N/A,,Overcast,200,2012-12-16 14:47:00
9:56 AM,61.0,55.0,81,29.76,10.0,SSW,9.2,-,N/A,,Overcast,210,2012-12-16 14:56:00
10:19 AM,60.8,55.4,82,29.77,10.0,South,8.1,-,N/A,,Overcast,190,2012-12-16 15:19:00
10:56 AM,62.1,55.0,78,29.77,10.0,SW,9.2,-,N/A,,Overcast,220,2012-12-16 15:56:00
11:56 AM,63.0,54.0,72,29.74,10.0,SW,9.2,19.6,N/A,,Overcast,220,2012-12-16 16:56:00
12:49 PM,64.4,51.8,64,29.72,10.0,SW,15.0,25.3,N/A,,Overcast,220,2012-12-16 17:49:00
12:56 PM,64.0,53.1,67,29.71,10.0,SW,10.4,25.3,N/A,,Overcast,220,2012-12-16 17:56:00
1:56 PM,63.0,48.9,60,29.70,10.0,WSW,17.3,20.7,N/A,,Overcast,240,2012-12-16 18:56:00
2:56 PM,63.0,50.0,63,29.69,10.0,WSW,10.4,-,N/A,,Overcast,240,2012-12-16 19:56:00
3:56 PM,62.1,48.9,62,29.69,10.0,SW,11.5,-,N/A,,Overcast,230,2012-12-16 20:56:00
4:56 PM,61.0,48.9,64,29.70,10.0,WSW,6.9,-,N/A,,Overcast,240,2012-12-16 21:56:00
5:56 PM,57.9,50.0,75,29.67,10.0,SE,4.6,-,N/A,,Overcast,130,2012-12-16 22:56:00
6:56 PM,59.0,50.0,72,29.69,10.0,Calm,Calm,-,N/A,,Overcast,0,2012-12-16 23:56:00
7:56 PM,57.9,51.1,78,29.70,10.0,South,3.5,-,N/A,,Overcast,180,2012-12-17 00:56:00
8:31 PM,59.0,53.6,82,29.71,10.0,South,6.9,-,N/A,,Overcast,190,2012-12-17 01:31:00
8:56 PM,59.0,53.1,81,29.71,10.0,SW,5.8,-,N/A,,Overcast,220,2012-12-17 01:56:00
9:56 PM,57.9,54.0,87,29.73,10.0,SW,5.8,-,N/A,,Overcast,230,2012-12-17 02:56:00
10:19 PM,57.2,53.6,88,29.74,10.0,SW,4.6,-,N/A,,Overcast,220,2012-12-17 03:19:00
10:56 PM,57.9,54.0,87,29.73,10.0,SW,5.8,-,N/A,,Mostly Cloudy,220,2012-12-17 03:56:00
11:21 PM,57.2,53.6,88,29.73,7.0,West,4.6,-,0.01,Rain,Rain,260,2012-12-17 04:21:00
11:56 PM,57.9,54.0,87,29.73,3.0,SW,9.2,18.4,0.13,Rain,Heavy Rain,230,2012-12-17 04:56:00